TimeCST,TemperatureF,Dew PointF,Humidity,Sea Level PressureIn,VisibilityMPH,Wind Direction,Wind SpeedMPH,Gust SpeedMPH,PrecipitationIn,Events,Conditions,WindDirDegrees,DateUTC
12:55 AM,42.8,31.3,64,30.12,10.0,ESE,5.8,-,N/A,,Overcast,110,2013-02-07 06:55:00
1:55 AM,41.9,32.2,68,30.11,10.0,East,3.5,-,N/A,,Overcast,100,2013-02-07 07:55:00
2:55 AM,41.7,32.7,70,30.09,10.0,East,4.6,-,N/A,,Overcast,90,2013-02-07 08:55:00
3:55 AM,41.5,32.9,71,30.08,10.0,East,5.8,-,N/A,,Overcast,80,2013-02-07 09:55:00
4:55 AM,39.9,34.2,80,30.07,10.0,ENE,3.5,-,N/A,,Overcast,70,2013-02-07 10:55:00
5:55 AM,41.2,33.3,73,30.06,10.0,Calm,Calm,-,N/A,,Overcast,0,2013-02-07 11:55:00
6:55 AM,39.6,33.3,78,30.05,10.0,ENE,5.8,-,N/A,,Overcast,70,2013-02-07 12:55:00
7:55 AM,41.2,33.3,73,30.04,10.0,ESE,6.9,-,N/A,,Scattered Clouds,110,2013-02-07 13:55:00
8:55 AM,47.1,34.0,60,30.04,10.0,ESE,4.6,-,N/A,,Clear,120,2013-02-07 14:55:00
9:55 AM,54.1,34.3,47,30.03,10.0,SE,3.5,-,N/A,,Clear,130,2013-02-07 15:55:00
10:55 AM,59.4,37.0,43,30.02,10.0,SE,9.2,-,N/A,,Clear,140,2013-02-07 16:55:00
11:55 AM,64.8,41.5,43,29.98,10.0,SSE,9.2,-,N/A,,Clear,160,2013-02-07 17:55:00
12:55 PM,67.3,43.0,41,29.94,10.0,SSW,11.5,-,N/A,,Clear,200,2013-02-07 18:55:00
1:55 PM,66.2,43.0,43,29.92,10.0,South,10.4,-,N/A,,Partly Cloudy,180,2013-02-07 19:55:00
2:55 PM,66.2,43.5,44,29.91,10.0,South,9.2,-,N/A,,Mostly Cloudy,190,2013-02-07 20:55:00
3:55 PM,65.7,44.1,46,29.89,10.0,SSW,9.2,-,N/A,,Clear,200,2013-02-07 21:55:00
5:55 PM,62.2,44.4,52,29.89,10.0,SE,6.9,-,N/A,,Clear,140,2013-02-07 23:55:00
6:55 PM,58.8,45.0,60,29.89,10.0,South,5.8,-,N/A,,Clear,180,2013-02-08 00:55:00
7:55 PM,58.6,46.6,64,29.90,10.0,South,9.2,-,N/A,,Overcast,170,2013-02-08 01:55:00
8:55 PM,57.6,47.1,68,29.90,10.0,South,11.5,-,N/A,,Overcast,170,2013-02-08 02:55:00
9:55 PM,56.5,46.9,70,29.89,10.0,South,9.2,-,N/A,,Overcast,180,2013-02-08 03:55:00
10:55 PM,55.9,47.5,73,29.88,10.0,South,11.5,-,N/A,,Overcast,180,2013-02-08 04:55:00
11:48 PM,55.4,48.2,77,29.88,10.0,SSW,5.8,-,N/A,,Light Drizzle,210,2013-02-08 05:48:00
11:55 PM,54.1,49.3,84,29.88,10.0,SW,5.8,-,0.00,Rain,Light Rain,230,2013-02-08 05:55:00